Tracking 29892 objects as of 21-Nov-2024
HD Live streaming from Space Station
objects crossing your sky now

PICO-01D007

Track PICO-01D007 now!
10-day predictions


NORAD ID: 58690
Int'l Code: 2023-174DE
Perigee: 382.3 km
Apogee: 390.9 km
Inclination: 97.4 °
Period: 92.1 minutes
Semi major axis: 6757 km
RCS: Unknown
Launch date: November 11, 2023
Source: Italy (IT)
Launch site: AIR FORCE WESTERN TEST RANGE (AFWTR)
Your satellite tracking list
Your tracking list is empty




NASA's NSSDC Master Catalog

Two Line Element Set (TLE):
1 58690U 23174DE  24325.99046904  .00229134  00000-0  24775-2 0  9990
2 58690  97.4305  44.2734 0006345 327.6256  32.4612 15.62836573 57894
Source of the keplerian elements: AFSPC